This is the latest recevied weather packets stored in our database for station/object DC0VZ-6. If no packets are shown the sender has not sent any weather packets the latest 10 day(s).
| Time | Temp. | Humidity | Pressure | Rain* | Wind** | Luminosity | Snow |
|---|---|---|---|---|---|---|---|
| 1777823771 | 20.56° C | 11% | 983.4 hPa | 0 mm | - | - | - |
| 1777823171 | 21.11° C | 5% | 983.4 hPa | 0 mm | - | - | - |
| 1777822571 | 21.67° C | 5% | 983.1 hPa | 0 mm | - | - | - |
| 1777821971 | 21.67° C | 5% | 983.1 hPa | 0 mm | - | - | - |
| 1777821371 | 22.22° C | 5% | 983 hPa | 0 mm | - | - | - |
| 1777820771 | 22.22° C | 5% | 983 hPa | 0 mm | - | - | - |
| 1777820171 | 22.22° C | 5% | 982.9 hPa | 0 mm | - | - | - |
| 1777819571 | 22.78° C | 5% | 982.9 hPa | 0 mm | - | - | - |
| 1777818971 | 23.33° C | 5% | 983.2 hPa | 0 mm | - | - | - |
| 1777818370 | 23.89° C | 5% | 983.2 hPa | 0 mm | - | - | - |
| 1777817771 | 25.56° C | 5% | 983.6 hPa | 0 mm | - | - | - |
| 1777817170 | 25.56° C | 5% | 983.6 hPa | 0 mm | - | - | - |
| 1777816570 | 26.11° C | 5% | 983.4 hPa | 0 mm | - | - | - |
| 1777815970 | 26.67° C | 5% | 983.4 hPa | 0 mm | - | - | - |
| 1777815370 | 26.11° C | 5% | 983.4 hPa | 0 mm | - | - | - |
| 1777814770 | 26.11° C | 5% | 983.4 hPa | 0 mm | - | - | - |
| 1777814170 | 26.11° C | 7% | 983.4 hPa | 0 mm | - | - | - |
| 1777813570 | 26.11° C | 7% | 983.4 hPa | 0 mm | - | - | - |
| 1777812970 | 26.11° C | 7% | 983.4 hPa | 0 mm | - | - | - |
| 1777812370 | 24.44° C | 8% | 983.4 hPa | 0 mm | - | - | - |
| 1777811770 | 25.56° C | 7% | 983.4 hPa | 0 mm | - | - | - |
| 1777811169 | 24.44° C | 8% | 983.4 hPa | 0 mm | - | - | - |
| 1777810569 | 23.89° C | 8% | 983.4 hPa | 0 mm | - | - | - |
| 1777809969 | 23.89° C | 9% | 983.4 hPa | 0 mm | - | - | - |
| 1777809374 | 24.44° C | 8% | 983.3 hPa | 0 mm | - | - | - |
* Rain latest hour (hover to see other rain measurements)
** Current wind speed in m/s (hover to see current wind gust speed)